Regional Weather Roundup
Issued by NWS

Home | Current Version | Previous Version | Graphics & Text | Print | Product List | Glossary On
Versions: 1 2 3 4 5 6 7 8 9 10 11 12 13 14 15 16 17 18 19 20 21 22 23 24 25 26 27 28 29 30 31 32 33 34 35 36 37 38 39 40 41 42 43 44 45 46 47 48 49 50
000
ASUS43 KMPX 221310
RWRMN
WEATHER ROUNDUP FOR MINNESOTA
NATIONAL WEATHER SERVICE TWIN CITIES/CHANHASSEN MN
800 AM CDT TUE MAY 22 2018


NOTE: "FAIR" INDICATES FEW OR NO CLOUDS BELOW 12,000 FEET WITH NO
SIGNIFICANT WEATHER AND/OR OBSTRUCTIONS TO VISIBILITY. N/A MEANS
CURRENT SKY AND/OR WEATHER CONDITIONS ARE NOT AVAILABLE.

MNZ060>063-068>070-221400-
   Twin Cities Metro

CITY           SKY/WX    TMP DP  RH WIND       PRES   REMARKS
TWIN CITIES    PTSUNNY   60  56  86 S5        30.04R
ST PAUL        FAIR      60  55  83 S5        30.04R
CRYSTAL        FAIR      60  53  77 CALM      30.03R
BLAINE         MOSUNNY   61  57  88 SE5       30.03R
LAKEVILLE      PTSUNNY   59  55  88 S5        30.05R
EDEN PRAIRIE   FAIR      59  53  80 S5        30.04R
SOUTH ST PAUL  PTSUNNY   60  55  85 CALM      30.04R
LAKE ELMO      CLOUDY    59  55  88 CALM      30.05R
$$
MNZ001>005-007-008-013>017-022>024-027-028-221400-
   Northwest Minnesota

CITY           SKY/WX    TMP DP  RH WIND       PRES   REMARKS
BEMIDJI        FAIR      55  47  76 CALM      30.02S
HALLOCK        FAIR      59  55  88 S9        29.96S
ROSEAU         FAIR      55  50  82 S8        29.99S HAZE
WARROAD        FAIR      55  52  88 SW8       30.00S FOG
THIEF RVR FALL FAIR      57  53  86 S7        30.01R
CROOKSTON      FAIR      57  55  94 S9        29.99S FOG
FOSSTON        FAIR      59  52  77 S3        30.01S
DETROIT LAKES  FAIR      57  52  82 SE6       30.02S
MOORHEAD       FOG       55  54  94 S8        30.01R VSB 1/4
PARK RAPIDS    CLOUDY    57  47  69 S3        30.02R
MAHNOMEN       FAIR      58  54  84 S5        30.01R
$$
MNZ006-009>011-018-025>026-221400-
   North Central Minnesota

CITY           SKY/WX    TMP DP  RH WIND       PRES   REMARKS
BAUDETTE       FAIR      54  49  83 SW3       30.01S
FLAG ISLAND    FAIR      54  50  87 S7        29.98S
INTL FALLS     FAIR      56  48  74 W5        30.02S
WASKISH        PTSUNNY   55  48  76 CALM      30.02S
BIG FORK       FAIR      55  46  71 CALM      30.03S
LONGVILLE      CLOUDY    55  48  76 CALM      30.03S
GRAND RAPIDS   CLOUDY    56  46  69 CALM      30.05S
CRANE LAKE     FAIR      52  45  76 CALM      30.05S
ORR            FAIR      54  43  66 CALM      30.02R
COOK           FAIR      57  46  67 W5        30.04R
WALKER         CLOUDY    55  47  76 CALM      30.03S
$$
MNZ012-019>021-037-221400-
   Northeast Minnesota

CITY           SKY/WX    TMP DP  RH WIND       PRES   REMARKS
DULUTH         CLOUDY    61  46  57 W5        30.03S
ELY            FAIR      57  45  62 W6        30.03S
HIBBING        PTSUNNY   55  44  66 CALM      30.03S
EVELETH        FAIR      57  45  62 CALM      30.05R
DULUTH HARBOR  CLOUDY    55  52  88 S3        30.04S
TWO HARBORS    FAIR      63  50  63 CALM      30.01F
SILVER BAY     CLOUDY    63  45  51 CALM      30.01S
GRAND MARAIS     N/A     43  34  70 SW6       30.01S
G MARAIS ARPRT FAIR      61  45  55 NW6       30.02S
$$
MNZ029>031-032-039>041-046>048-054>057-064-221400-
   West Central Minnesota

CITY           SKY/WX    TMP DP  RH WIND       PRES   REMARKS
FERGUS FALLS   CLOUDY    57  55  94 S6        29.98S FOG
WHEATON        FOG       57  55  94 SE6       30.03R VSB 1/2
MORRIS         FOG       55  55 100 SE7       30.01S VSB 1/2
ALEXANDRIA     CLOUDY    59  52  77 S5        30.04R
ELBOW LAKE     CLOUDY    57  55  91 S7        30.02S
WADENA         CLOUDY    55  46  71 SE3       30.02S
GLENWOOD       CLOUDY    55  52  88 SE3       30.04R
APPLETON       FOG       57  55  94 SE5       30.02R VSB<1/4
BENSON         FOG       57  55  94 S5        30.04R VSB<1/4
ORTONVILLE     FOG       57  55  94 S5        30.02R VSB<1/4
MADISON        FOG       55  55 100 SE5       30.02S VSB<1/4
WILLMAR        CLOUDY    55  54  94 CALM      30.06R
$$
MNZ033>034-036-042>043-049>051-058-059-221400-
   Central Minnesota

CITY           SKY/WX    TMP DP  RH WIND       PRES   REMARKS
ST CLOUD       FAIR      56  51  84 CALM      30.04R
SAUK CENTRE    CLOUDY    53  50  90 CALM      30.04S
PAYNESVILLE    CLOUDY    55  54  95 S3        30.05R
AITKIN         CLOUDY    54  48  82 CALM      30.02S
PINE RIVER     CLOUDY    54  46  76 CALM      30.06F
BRAINERD       FAIR      59  46  62 SW3       30.04R
STAPLES        CLOUDY    54  45  71 SE3       30.03S
LONG PRAIRIE   CLOUDY    52  50  93 CALM      30.04S
LITTLE FALLS   CLOUDY    55  50  82 CALM      30.04S
LITCHFIELD     PTSUNNY   57  57 100 CALM      30.05R
BUFFALO        PTSUNNY   58  54  85 CALM      30.05R
MAPLE LAKE     CLOUDY    57  56  97 CALM      30.05S FOG
HUTCHINSON     CLOUDY    58  57  99 CALM      30.06R FOG
$$
MNZ037-044-045-052-053-221400-
   East Central Minnesota

CITY           SKY/WX    TMP DP  RH WIND       PRES   REMARKS
PRINCETON      PTSUNNY   59  55  88 CALM      30.04S
MORA           FAIR      55  50  82 CALM      30.05S
CAMBRIDGE      CLOUDY    61  52  72 CALM      30.04R
RUSH CITY      PTSUNNY   59  54  84 CALM      30.04S
MOOSE LAKE     CLOUDY    55  50  82 CALM      30.02S
HINCKLEY       FAIR      59  54  82 CALM      30.04R
CLOQUET        CLOUDY    55  45  67 CALM      30.04S
MCGREGOR       CLOUDY    55  50  82 CALM      30.04S
$$
MNZ071>073-080-081-089-090-097-098-221400-
   Southwest Minnesota

CITY           SKY/WX    TMP DP  RH WIND       PRES   REMARKS
MONTEVIDEO     FOG       57  57 100 S6        30.03S VSB<1/4
GRANITE FALLS  FOG       57  56  99 CALM      30.05R VSB 1/4
CANBY          SUNNY     56  55  98 CALM      30.03R FOG
MARSHALL       FOG       56  55  97 S6        30.04R VSB 1/4
REDWOOD FALLS  FOG       57  57 100 S6        30.03R VSB 1/4
OLIVIA         FOG       55  55 100 CALM      30.03S VSB 1/4
PIPESTONE      CLOUDY    55  55 100 S6        30.03R FOG
WINDOM         HAZE      57  45  62 SE6       30.04R VSB 1/2
WORTHINGTON    FOG       55  55 100 S6        30.05R VSB 1/2
JACKSON        FOG       59  59 100 S7        30.05R VSB 1/4
TRACY          FOG       57  57 100 S5        30.03R VSB 1/2
SLAYTON        FOG       54  54 100 S7        30.05R VSB<1/4
$$
MNZ065>067-074>077-082>085-091>093-221400-
   South Central Minnesota

CITY           SKY/WX    TMP DP  RH WIND       PRES   REMARKS
MANKATO        FOG       58  57  97 CALM      30.05S VSB 3/4
NEW ULM        CLOUDY    61  59  94 CALM      30.04R FOG
ST JAMES       FOG       57  57 100 S3        30.06R VSB 1/4
FAIRMONT       FOG       58  57  97 S5        30.06R VSB 1/4
GLENCOE        CLOUDY    59  59 100 S3        30.04R FOG
FARIBAULT      CLOUDY    59  55  88 CALM      30.06R FOG
OWATONNA       FOG       57  55  94 CALM      30.06R VSB 3/4
WASECA         CLOUDY    57  55  94 CALM      30.06S FOG
ALBERT LEA     CLOUDY    61  55  82 CALM      30.06R FOG
$$
MNZ078>079-086>088-094>096-221400-
   Southeast Minnesota

CITY           SKY/WX    TMP DP  RH WIND       PRES   REMARKS
ROCHESTER      CLOUDY    55  54  96 S5        30.07R
RED WING       CLOUDY    59  54  82 SE3       30.04R
STANTON        PTSUNNY   56  53  89 S6        30.04R
DODGE CENTER   FOG       54  54 100 S3        30.06R VSB 1/4
WINONA         CLOUDY    59  55  88 SE5       30.03R
AUSTIN         FOG       57  55  94 CALM      30.06R VSB 3/4
PRESTON        CLOUDY    55  53  96 CALM      30.07R FOG
$$
ABBREVIATIONS USED IN REMARKS
   TC - TEMPERATURES IN CELSIUS
  WCI - WIND CHILL INDEX
   HX - HEAT INDEX
  VSB - VISIBILITY
$$




USA.gov is the U.S. government's official web portal to all federal, state and local government web resources and services.